Home > Weather > Regensdorf > Past weeks

Flag for Switzerland Past Weather in Regensdorf, Zurich, Switzerland — Yesterday and Last 2 Weeks

Now
62 °F

Mild.


Feels Like: 62 °F
Forecast: 57 / 69 °F
Wind: 1 mph from East

Location: Zurich-Kloten

Current Time: Jul 1, 2016 at 8:17:51 AM

Latest Report: Jul 1, 2016 at 7:00 AM


Visibility: N/A

Pressure: 30.07 "Hg

Humidity: 92%

Dew Point: 60 °F

Location of RegensdorfLocation

Past Weather in Regensdorf — Graph

°F

Regensdorf Temperature Yesterday

Maximum temperature yesterday: 74 °F (at 4:00 PM)
Minimum temperature yesterday: 62 °F (at 2:00 AM)
Average temperature yesterday: 66 °F

High & Low Weather Summary for the Past Weeks

 TemperatureHumidityPressure
High90 °F (Jun 23, 5:00 PM)99% (Jun 20, 2:00 AM)30.27 "Hg (Jun 20, 2:00 AM)
Low50 °F (Jun 18, 3:00 AM)37% (Jun 27, 5:00 PM)29.61 "Hg (Jun 16, 7:00 AM)
Average65 °F77%30.05 "Hg
* Reported Jun 16 7:00 AM — Jul 1 7:00 AM, Regensdorf, Weather by CustomWeather, © 2016

Note: Actual official high and low records may vary slightly from our data, if they occured in-between our weather recording intervals... More about our weather records

Advertising

Regensdorf Weather History for the Previous 24 Hours

Scroll right to see more
 ConditionsComfort  
Time TempWeatherWind HumidityBarometerVisibility
7:00 AM
Fri, Jul 1
62 °FMild.1 mph92%30.07 "HgN/A
6:00 AM58 °FCool.1 mph98%30.08 "HgN/A
5:00 AM60 °FFog.5 mph96%30.07 "Hg5 mi
4:00 AM62 °FCool.5 mph96%30.07 "HgN/A
3:00 AM62 °FCool.3 mph96%30.07 "HgN/A
2:00 AM63 °FFog.5 mph96%30.06 "Hg4 mi
1:00 AM63 °FMild.3 mph97%30.06 "HgN/A
12:00 AM64 °FMild.3 mph97%30.06 "HgN/A
11:00 PM
Thu, Jun 30
65 °FPassing clouds.7 mph95%30.06 "Hg11 mi
10:00 PM66 °FMild.8 mph95%30.05 "HgN/A
9:00 PM69 °FMild.8 mph76%30.01 "HgN/A
8:00 PM72 °FMild.7 mph63%29.98 "HgN/A
7:00 PM72 °FMild.3 mph65%29.97 "HgN/A
6:00 PM73 °FMild.7 mph61%29.97 "HgN/A
5:00 PM74 °FPartly sunny.6 mph62%29.97 "Hg19 mi
4:00 PM74 °FMild.6 mph64%29.97 "HgN/A
3:00 PM71 °FMild.6 mph66%29.99 "HgN/A
2:00 PM69 °FOvercast.3 mph69%30.00 "Hg16 mi
1:00 PM67 °FMild.2 mph77%30.02 "HgN/A
12:00 PM65 °FMild.3 mph82%30.03 "HgN/A
11:00 AM63 °FOvercast.3 mph85%30.04 "Hg9 mi
10:00 AM64 °FMild.3 mph92%30.03 "HgN/A
9:00 AM63 °FMild.2 mph91%30.01 "HgN/A
8:00 AM63 °FLow clouds.3 mph94%30.00 "Hg9 mi
Weather by CustomWeather, © 2016

See weather overviewHow to use our weather pages